period_start,C,m1,H,J0,J1,J2,J3,J4,J5,JA,JB,JC,JD,JJ,JK,JN,#
2018-10-08 00:02:32,0.00,0.00,0.00,25.01,29.35,31.43,-0.05,0.25,1030.29,2017.02,3627.50,3062.10,3525.06,0.00,0.00,0.00,0000 0000 0000 A000 020008
2018-10-08 05:58:50,-3333.30,0.00,0.00,16.59,18.35,16.57,0.05,0.28,1025.53,1788.99,3187.86,2722.18,3140.55,0.00,0.00,0.00,0000 0000 0000 A000 020008
2018-10-08 06:03:51,0.00,0.00,0.00,16.97,18.27,18.07,0.05,-0.04,1025.89,2062.00,3672.85,3137.20,3618.42,0.00,0.00,0.00,0000 0000 0000 A000 020008
2018-10-08 06:08:52,0.00,0.00,0.00,17.31,18.21,18.85,0.05,-0.23,1025.90,2061.92,3672.02,3137.00,3617.55,0.00,0.00,0.00,0000 0000 0000 A000 020008
2018-10-08 06:13:53,0.00,0.00,0.00,17.56,18.17,19.51,0.04,-0.25,1025.96,2061.95,3671.99,3137.00,3617.02,0.00,0.00,0.00,0000 0000 0000 A000 020008
2018-10-08 06:18:54,0.00,0.00,0.00,17.75,18.17,20.18,0.04,-0.33,1026.16,2061.92,3671.76,3137.00,3616.96,0.00,0.00,0.00,0000 0000 0000 A000 020008
2018-10-08 06:23:55,0.00,0.00,0.00,17.99,18.20,20.64,0.05,-0.47,1026.36,2061.80,3671.11,3136.98,3616.41,0.00,0.00,0.00,0000 0000 0000 A000 020008
2018-10-08 06:28:57,0.00,0.00,0.00,18.32,18.27,20.88,0.05,-0.50,1026.38,2061.26,3670.95,3136.58,3615.98,0.00,0.00,0.00,0000 0000 0000 A000 020008
2018-10-08 06:33:58,0.00,0.00,0.00,18.66,18.36,21.20,0.05,-0.50,1026.38,2061.01,3670.15,3136.03,3615.15,0.00,0.00,0.00,0000 0000 0000 A000 020008
2018-10-08 06:38:59,0.00,0.00,0.00,18.99,18.49,21.62,0.05,-0.57,1026.38,2061.00,3669.66,3135.60,3614.51,0.00,0.00,0.00,0000 0000 0000 A000 020008
2018-10-08 06:44:00,0.00,0.00,0.00,19.31,18.63,21.94,0.05,-0.72,1026.40,2060.56,3668.80,3135.00,3613.55,0.00,0.00,0.00,0000 0000 0000 A000 020008
2018-10-08 06:49:02,0.00,0.00,0.00,19.61,18.79,22.27,0.05,-0.75,1026.65,2060.02,3667.90,3134.20,3612.57,0.00,0.00,0.00,0000 0000 0000 A000 020008
2018-10-08 06:54:03,0.00,0.00,0.00,19.88,18.98,22.59,0.05,-0.76,1026.87,2059.62,3666.90,3133.39,3611.42,0.00,0.00,0.00,0000 0000 0000 A000 020008
2018-10-08 06:59:04,0.00,0.00,0.00,20.13,19.18,22.92,0.05,-0.85,1026.87,2059.00,3665.71,3132.34,3610.09,0.00,0.00,0.00,0000 0000 0000 A000 020008
2018-10-08 07:04:05,0.00,0.00,0.00,20.36,19.40,23.25,0.05,-0.97,1026.87,2058.22,3664.45,3131.20,3608.66,0.00,0.00,0.00,0000 0000 0000 A000 020008
2018-10-08 07:09:07,0.00,0.00,0.00,20.56,19.62,23.56,0.05,-1.00,1026.87,2057.65,3663.14,3129.95,3607.25,0.00,0.00,0.00,0000 0000 0000 A000 020008
2018-10-08 07:14:08,0.00,0.00,0.00,20.75,19.86,23.87,0.05,-1.00,1026.87,2056.94,3661.79,3128.76,3605.71,0.00,0.00,0.00,0000 0000 0000 A000 020008
2018-10-08 07:19:09,0.00,0.00,0.00,20.93,20.09,24.16,0.05,-1.00,1026.88,2056.09,3660.42,3127.53,3604.10,0.00,0.00,0.00,0000 0000 0000 A000 020008
2018-10-08 07:24:10,0.00,0.00,0.00,21.09,20.32,24.43,0.05,-1.05,1026.93,2055.26,3658.87,3126.18,3602.50,0.00,0.00,0.00,0000 0000 0000 A000 020008
2018-10-08 07:29:11,0.00,0.00,0.00,21.24,20.56,24.69,0.05,-1.18,1027.16,2054.56,3657.39,3124.76,3600.77,0.00,0.00,0.00,0000 0000 0000 A000 020008
2018-10-08 07:34:12,0.00,0.00,0.00,21.37,20.81,24.94,0.05,-1.24,1027.34,2053.63,3655.73,3123.37,3598.99,0.00,0.00,0.00,0000 0000 0000 A000 020008
2018-10-08 07:39:13,0.00,0.00,0.00,21.50,21.04,25.18,0.05,-1.25,1027.35,2052.86,3654.25,3121.96,3597.29,0.00,0.00,0.00,0000 0000 0000 A000 020008
2018-10-08 07:44:15,0.00,0.00,0.00,21.62,21.28,25.40,0.05,-1.25,1027.36,2052.00,3652.67,3120.52,3595.54,0.00,0.00,0.00,0000 0000 0000 A000 020008
2018-10-08 07:49:16,0.00,0.00,0.00,21.71,21.51,25.62,0.05,-1.26,1027.36,2051.11,3651.11,3119.14,3593.72,0.00,0.00,0.00,0000 0000 0000 A000 020008
2018-10-08 07:54:17,0.00,0.00,0.00,21.79,21.74,25.81,0.05,-1.33,1027.36,2050.24,3649.57,3117.68,3591.99,0.00,0.00,0.00,0000 0000 0000 A000 020008
2018-10-08 07:59:18,0.00,0.00,0.00,21.88,21.96,25.97,0.05,-1.47,1027.36,2049.39,3647.98,3116.31,3590.26,0.00,0.00,0.00,0000 0000 0000 A000 020008
2018-10-08 08:04:19,0.00,0.00,0.00,21.96,22.18,26.16,0.05,-1.48,1027.37,2048.63,3646.66,3114.89,3588.56,0.00,0.00,0.00,0000 0000 0000 A000 020008
2018-10-08 08:09:21,0.00,0.00,0.00,22.06,22.39,26.34,0.05,-1.50,1027.39,2047.74,3645.21,3113.56,3586.89,0.00,0.00,0.00,0000 0000 0000 A000 020008
2018-10-08 08:14:22,0.00,0.00,0.00,22.15,22.60,26.56,0.05,-1.50,1027.38,2047.02,3643.76,3112.21,3585.26,0.00,0.00,0.00,0000 0000 0000 A000 020008
2018-10-08 08:19:23,0.00,0.00,0.00,22.22,22.80,26.75,0.06,-1.51,1027.40,2046.47,3642.40,3110.92,3583.67,0.00,0.00,0.00,0000 0000 0000 A000 020008
2018-10-08 08:24:24,0.00,0.00,0.00,22.29,23.00,26.90,0.05,-1.53,1027.51,2045.69,3640.94,3109.62,3582.30,0.00,0.00,0.00,0000 0000 0000 A000 020008
2018-10-08 08:29:25,0.00,0.00,0.00,22.35,23.19,27.04,0.06,-1.60,1027.51,2044.97,3639.68,3108.46,3580.78,0.00,0.00,0.00,0000 0000 0000 A000 020008
2018-10-08 08:34:26,0.00,0.00,0.00,22.40,23.37,27.15,0.05,-1.68,1027.44,2044.11,3638.30,3107.20,3579.31,0.00,0.00,0.00,0000 0000 0000 A000 020008
2018-10-08 08:39:27,0.00,0.00,0.00,22.45,23.55,27.23,0.05,-1.73,1027.62,2043.45,3636.94,3106.00,3577.76,0.00,0.00,0.00,0000 0000 0000 A000 020008
2018-10-08 08:44:28,0.00,0.00,0.00,22.51,23.72,27.33,0.06,-1.74,1027.73,2042.77,3635.69,3104.85,3576.41,0.00,0.00,0.00,0000 0000 0000 A000 020008
2018-10-08 08:49:29,0.00,0.00,0.00,22.55,23.88,27.40,0.05,-1.75,1027.78,2042.02,3634.49,3103.76,3575.00,0.00,0.00,0.00,0000 0000 0000 A000 020008
2018-10-08 08:54:30,0.00,0.00,0.00,22.60,24.04,27.45,0.05,-1.75,1027.49,2041.32,3633.33,3102.67,3573.71,0.00,0.00,0.00,0000 0000 0000 A000 020008
2018-10-08 08:59:32,0.00,0.00,0.00,22.64,24.20,27.53,0.06,-1.75,1027.39,2040.88,3632.22,3101.59,3572.48,0.00,0.00,0.00,0000 0000 0000 A000 020008
2018-10-08 09:04:33,0.00,0.00,0.00,22.68,24.35,27.51,0.06,-1.75,1027.39,2040.08,3631.07,3100.65,3571.20,0.00,0.00,0.00,0000 0000 0000 A000 020008
2018-10-08 09:09:34,0.00,0.00,0.00,22.71,24.49,27.64,0.07,-1.73,1027.39,2039.60,3629.97,3099.67,3569.95,0.00,0.00,0.00,0000 0000 0000 A000 020008
2018-10-08 09:14:35,0.00,0.00,0.00,22.73,24.63,27.66,0.06,-1.75,1027.37,2039.00,3629.00,3098.73,3568.86,0.00,0.00,0.00,0000 0000 0000 A000 020008
2018-10-08 09:19:37,0.00,0.00,0.00,22.75,24.76,27.79,0.06,-1.75,1027.37,2038.29,3628.03,3097.81,3567.79,0.00,0.00,0.00,0000 0000 0000 A000 020008
2018-10-08 09:24:38,0.00,0.00,0.00,22.78,24.89,27.96,0.07,-1.75,1027.37,2037.95,3627.07,3096.89,3566.66,0.00,0.00,0.00,0000 0000 0000 A000 020008
2018-10-08 09:29:39,0.00,0.00,0.00,22.79,25.00,28.10,0.07,-1.76,1027.36,2037.19,3626.12,3096.02,3565.67,0.00,0.00,0.00,0000 0000 0000 A000 020008
2018-10-08 09:34:41,0.00,0.00,0.00,22.81,25.12,28.19,0.07,-1.76,1027.36,2036.90,3625.18,3095.17,3564.56,0.00,0.00,0.00,0000 0000 0000 A000 020008
2018-10-08 09:39:42,0.00,0.00,0.00,22.82,25.23,28.31,0.06,-1.80,1027.36,2036.12,3624.27,3094.34,3563.59,0.00,0.00,0.00,0000 0000 0000 A000 020008
2018-10-08 09:44:43,0.00,0.00,0.00,22.84,25.34,28.39,0.07,-1.95,1027.36,2035.96,3623.49,3093.69,3562.73,0.00,0.00,0.00,0000 0000 0000 A000 020008
2018-10-08 09:49:44,0.00,0.00,0.00,22.86,25.44,28.48,0.07,-1.98,1027.36,2035.27,3622.79,3092.97,3561.84,0.00,0.00,0.00,0000 0000 0000 A000 020008
2018-10-08 09:54:45,0.00,0.00,0.00,22.88,25.54,28.55,0.07,-1.96,1027.36,2034.99,3622.02,3092.13,3561.01,0.00,0.00,0.00,0000 0000 0000 A000 020008
2018-10-08 09:59:46,0.00,0.00,0.00,22.89,25.63,28.64,0.07,-1.99,1027.36,2034.52,3621.22,3091.63,3560.14,0.00,0.00,0.00,0000 0000 0000 A000 020008
2018-10-08 10:04:47,0.00,0.00,0.00,22.90,25.72,28.69,0.07,-2.00,1027.34,2034.01,3620.65,3091.01,3559.45,0.00,0.00,0.00,0000 0000 0000 A000 020008
2018-10-08 10:09:48,0.00,0.00,0.00,22.92,25.81,28.77,0.07,-2.00,1027.23,2033.92,3619.98,3090.24,3558.70,0.00,0.00,0.00,0000 0000 0000 A000 020008
2018-10-08 10:14:50,0.00,0.00,0.00,22.92,25.89,28.81,0.07,-2.00,1027.02,2033.16,3619.16,3089.75,3557.91,0.00,0.00,0.00,0000 0000 0000 A000 020008
2018-10-08 10:19:51,0.00,0.00,0.00,22.94,25.97,28.87,0.08,-2.00,1026.99,2033.00,3618.65,3089.05,3557.08,0.00,0.00,0.00,0000 0000 0000 A000 020008
2018-10-08 10:24:52,0.00,0.00,0.00,22.94,26.04,28.92,0.08,-2.00,1026.97,2032.82,3618.02,3088.83,3556.67,0.00,0.00,0.00,0000 0000 0000 A000 020008
2018-10-08 10:29:53,0.00,0.00,0.00,22.96,26.11,28.98,0.08,-2.00,1026.90,2032.10,3617.57,3088.05,3556.02,0.00,0.00,0.00,0000 0000 0000 A000 020008
2018-10-08 10:34:54,0.00,0.00,0.00,22.97,26.18,29.03,0.07,-2.00,1026.88,2032.00,3617.02,3087.93,3555.57,0.00,0.00,0.00,0000 0000 0000 A000 020008
2018-10-08 10:39:56,0.00,0.00,0.00,22.98,26.24,29.03,0.08,-2.00,1026.87,2031.98,3616.71,3087.18,3555.00,0.00,0.00,0.00,0000 0000 0000 A000 020008
2018-10-08 10:44:57,0.00,0.00,0.00,22.99,26.30,29.09,0.08,-2.00,1026.87,2031.51,3616.04,3086.97,3554.25,0.00,0.00,0.00,0000 0000 0000 A000 020008
2018-10-08 10:49:58,0.00,0.00,0.00,23.00,26.36,29.19,0.07,-2.00,1026.87,2031.03,3615.71,3086.26,3553.91,0.00,0.00,0.00,0000 0000 0000 A000 020008
2018-10-08 10:54:59,0.00,0.00,0.00,23.02,26.42,29.20,0.06,-2.01,1026.84,2030.99,3615.05,3085.99,3553.14,0.00,0.00,0.00,0000 0000 0000 A000 020008
2018-10-08 11:00:01,0.00,0.00,0.00,23.02,26.48,29.25,0.07,-2.00,1026.74,2030.86,3614.83,3085.63,3552.98,0.00,0.00,0.00,0000 0000 0000 A000 020008
2018-10-08 11:05:02,0.00,0.00,0.00,23.02,26.53,29.29,0.07,-2.00,1026.53,2030.22,3614.16,3085.06,3552.32,0.00,0.00,0.00,0000 0000 0000 A000 020008
2018-10-08 11:10:04,0.00,0.00,0.00,23.03,26.57,29.29,0.08,-2.00,1026.43,2030.01,3613.99,3085.00,3552.00,0.00,0.00,0.00,0000 0000 0000 A000 020008
2018-10-08 11:15:05,0.00,0.00,0.00,23.04,26.62,29.35,0.06,-2.02,1026.39,2030.00,3613.62,3084.57,3551.69,0.00,0.00,0.00,0000 0000 0000 A000 020008
2018-10-08 11:20:07,0.00,0.00,0.00,23.04,26.66,29.36,0.07,-2.02,1026.38,2029.97,3613.02,3084.02,3551.03,0.00,0.00,0.00,0000 0000 0000 A000 020008
2018-10-08 11:25:08,0.00,0.00,0.00,23.04,26.71,29.37,0.07,-2.01,1026.38,2029.59,3613.00,3083.99,3550.93,0.00,0.00,0.00,0000 0000 0000 A000 020008
2018-10-08 11:30:09,0.00,0.00,0.00,23.06,26.75,29.40,0.07,-2.03,1026.38,2029.09,3612.43,3083.52,3550.18,0.00,0.00,0.00,0000 0000 0000 A000 020008
2018-10-08 11:35:09,0.00,0.00,0.00,23.07,26.79,29.39,0.07,-2.03,1026.37,2029.00,3612.00,3083.02,3549.98,0.00,0.00,0.00,0000 0000 0000 A000 020008
2018-10-08 11:40:10,0.00,0.00,0.00,23.08,26.82,29.40,0.07,-2.01,1026.25,2029.00,3611.99,3083.00,3549.64,0.00,0.00,0.00,0000 0000 0000 A000 020008
2018-10-08 11:45:12,0.00,0.00,0.00,23.09,26.86,29.43,0.06,-2.08,1026.17,2028.98,3611.79,3082.96,3549.07,0.00,0.00,0.00,0000 0000 0000 A000 020008
2018-10-08 11:50:13,0.00,0.00,0.00,23.09,26.90,29.44,0.06,-2.11,1025.96,2028.82,3611.13,3082.40,3549.00,0.00,0.00,0.00,0000 0000 0000 A000 020008
2018-10-08 11:55:14,0.00,0.00,0.00,23.09,26.93,29.45,0.07,-2.08,1025.91,2028.20,3611.00,3082.02,3548.77,0.00,0.00,0.00,0000 0000 0000 A000 020008
2018-10-08 12:00:15,0.00,0.00,0.00,23.09,26.96,29.44,0.07,-2.12,1025.90,2028.03,3610.97,3082.00,3548.13,0.00,0.00,0.00,0000 0000 0000 A000 020008
2018-10-08 12:05:17,0.00,0.00,0.00,23.10,26.99,29.43,0.07,-2.15,1025.90,2028.01,3610.55,3081.95,3548.00,0.00,0.00,0.00,0000 0000 0000 A000 020008
2018-10-08 12:10:18,0.00,0.00,0.00,23.11,27.02,29.45,0.07,-2.13,1025.90,2028.00,3610.03,3081.40,3547.98,0.00,0.00,0.00,0000 0000 0000 A000 020008
2018-10-08 12:15:19,0.00,0.00,0.00,23.12,27.05,29.48,0.06,-2.21,1025.90,2028.00,3610.00,3081.06,3547.81,0.00,0.00,0.00,0000 0000 0000 A000 020008
2018-10-08 12:20:21,0.00,0.00,0.00,23.12,27.07,29.48,0.06,-2.17,1025.90,2027.98,3609.98,3081.00,3547.12,0.00,0.00,0.00,0000 0000 0000 A000 020008
2018-10-08 12:25:22,0.00,0.00,0.00,23.13,27.10,29.48,0.06,-2.05,1025.87,2027.85,3609.60,3080.99,3547.00,0.00,0.00,0.00,0000 0000 0000 A000 020008
2018-10-08 12:30:23,0.00,0.00,0.00,23.14,27.12,29.51,0.07,-2.05,1025.85,2027.39,3609.15,3080.96,3546.98,0.00,0.00,0.00,0000 0000 0000 A000 020008
2018-10-08 12:35:25,0.00,0.00,0.00,23.14,27.15,29.49,0.06,-2.07,1025.71,2027.05,3609.01,3080.47,3546.63,0.00,0.00,0.00,0000 0000 0000 A000 020008
2018-10-08 12:40:26,0.00,0.00,0.00,23.14,27.17,29.51,0.06,-2.23,1025.74,2027.02,3609.00,3080.12,3546.16,0.00,0.00,0.00,0000 0000 0000 A000 020008
2018-10-08 12:45:27,0.00,0.00,0.00,23.14,27.20,29.50,0.07,-2.23,1025.48,2027.00,3609.00,3080.03,3546.01,0.00,0.00,0.00,0000 0000 0000 A000 020008
2018-10-08 12:50:29,0.00,0.00,0.00,23.14,27.21,29.51,0.06,-2.21,1025.42,2027.00,3608.94,3080.00,3546.00,0.00,0.00,0.00,0000 0000 0000 A000 020008
2018-10-08 12:55:30,0.00,0.00,0.00,23.14,27.23,29.54,0.06,-2.21,1025.42,2026.99,3608.46,3080.00,3545.98,0.00,0.00,0.00,0000 0000 0000 A000 020008
2018-10-08 13:00:31,0.00,0.00,0.00,23.15,27.25,29.55,0.05,-2.24,1025.42,2026.99,3608.27,3079.99,3545.96,0.00,0.00,0.00,0000 0000 0000 A000 020008
2018-10-08 13:05:32,0.00,0.00,0.00,23.16,27.27,29.50,0.06,-2.24,1025.41,2026.98,3608.14,3079.96,3545.72,0.00,0.00,0.00,0000 0000 0000 A000 020008
2018-10-08 13:10:33,0.00,0.00,0.00,23.17,27.29,29.53,0.05,-2.24,1025.41,2026.94,3608.00,3079.72,3545.13,0.00,0.00,0.00,0000 0000 0000 A000 020008
2018-10-08 13:15:35,0.00,0.00,0.00,23.17,27.30,29.56,0.05,-2.24,1025.37,2026.89,3608.00,3079.47,3545.02,0.00,0.00,0.00,0000 0000 0000 A000 020008
2018-10-08 13:20:36,0.00,0.00,0.00,23.17,27.32,29.52,0.06,-2.18,1025.37,2026.53,3607.99,3079.04,3545.00,0.00,0.00,0.00,0000 0000 0000 A000 020008
2018-10-08 13:25:37,0.00,0.00,0.00,23.18,27.33,29.52,0.05,-2.16,1025.18,2026.15,3607.95,3079.00,3544.99,0.00,0.00,0.00,0000 0000 0000 A000 020008
2018-10-08 13:30:38,0.00,0.00,0.00,23.19,27.35,29.58,0.05,-2.08,1024.95,2026.13,3607.95,3079.00,3544.98,0.00,0.00,0.00,0000 0000 0000 A000 020008
2018-10-08 13:35:39,0.00,0.00,0.00,23.19,27.36,29.57,0.05,-2.08,1024.93,2026.06,3607.60,3079.00,3544.94,0.00,0.00,0.00,0000 0000 0000 A000 020008
2018-10-08 13:40:41,0.00,0.00,0.00,23.19,27.37,29.60,0.05,-2.17,1024.92,2026.01,3607.20,3078.99,3544.57,0.00,0.00,0.00,0000 0000 0000 A000 020008
2018-10-08 13:45:42,0.00,0.00,0.00,23.17,27.39,29.59,0.05,-2.17,1024.92,2026.01,3607.07,3078.99,3544.20,0.00,0.00,0.00,0000 0000 0000 A000 020008
2018-10-08 13:50:43,0.00,0.00,0.00,23.17,27.40,29.57,0.06,-2.17,1024.92,2026.00,3607.03,3078.97,3544.09,0.00,0.00,0.00,0000 0000 0000 A000 020008
2018-10-08 13:55:44,0.00,0.00,0.00,23.17,27.41,29.59,0.05,-2.13,1024.92,2026.00,3607.02,3078.96,3544.05,0.00,0.00,0.00,0000 0000 0000 A000 020008
2018-10-08 14:00:45,0.00,0.00,0.00,23.17,27.42,29.57,0.05,-2.07,1024.86,2026.00,3607.01,3078.95,3544.01,0.00,0.00,0.00,0000 0000 0000 A000 020008
2018-10-08 14:05:47,0.00,0.00,0.00,23.17,27.43,29.59,0.05,-2.14,1024.63,2026.00,3607.00,3078.91,3544.01,0.00,0.00,0.00,0000 0000 0000 A000 020008
2018-10-08 14:10:48,0.00,0.00,0.00,23.17,27.45,29.59,0.05,-2.13,1024.45,2026.00,3607.00,3078.60,3544.00,0.00,0.00,0.00,0000 0000 0000 A000 020008
2018-10-08 14:15:49,0.00,0.00,0.00,23.17,27.45,29.55,0.05,-2.17,1024.43,2026.00,3607.00,3078.38,3543.99,0.00,0.00,0.00,0000 0000 0000 A000 020008
2018-10-08 14:20:50,0.00,0.00,0.00,23.17,27.45,29.60,0.05,-2.17,1024.42,2025.99,3606.99,3078.11,3543.99,0.00,0.00,0.00,0000 0000 0000 A000 020008
2018-10-08 14:25:51,0.00,0.00,0.00,23.15,27.47,29.59,0.05,-2.23,1024.42,2025.98,3606.95,3078.03,3543.95,0.00,0.00,0.00,0000 0000 0000 A000 020008
2018-10-08 14:30:52,0.00,0.00,0.00,23.14,27.47,29.58,0.05,-2.24,1024.38,2025.97,3606.84,3078.01,3543.86,0.00,0.00,0.00,0000 0000 0000 A000 020008
2018-10-08 14:35:53,0.00,0.00,0.00,23.14,27.47,29.59,0.05,-2.25,1024.31,2025.95,3606.46,3078.00,3543.66,0.00,0.00,0.00,0000 0000 0000 A000 020008
2018-10-08 14:40:55,0.00,0.00,0.00,23.14,27.49,29.53,0.05,-2.25,1024.12,2025.88,3606.26,3078.00,3543.35,0.00,0.00,0.00,0000 0000 0000 A000 020008
2018-10-08 14:45:56,0.00,0.00,0.00,23.14,27.50,29.52,0.05,-2.25,1023.96,2025.87,3606.12,3078.00,3543.21,0.00,0.00,0.00,0000 0000 0000 A000 020008
2018-10-08 14:50:57,0.00,0.00,0.00,23.14,27.50,29.55,0.05,-2.17,1023.94,2025.78,3606.08,3077.99,3543.13,0.00,0.00,0.00,0000 0000 0000 A000 020008
2018-10-08 14:55:58,0.00,0.00,0.00,23.15,27.50,29.55,0.05,-2.18,1023.92,2025.72,3606.13,3077.99,3543.09,0.00,0.00,0.00,0000 0000 0000 A000 020008
2018-10-08 15:00:59,0.00,0.00,0.00,23.16,27.50,29.56,0.05,-2.23,1023.92,2025.52,3606.03,3077.99,3543.03,0.00,0.00,0.00,0000 0000 0000 A000 020008
2018-10-08 15:06:00,0.00,0.00,0.00,23.17,27.51,29.54,0.05,-2.20,1023.77,2025.48,3606.02,3077.99,3543.03,0.00,0.00,0.00,0000 0000 0000 A000 020008
2018-10-08 15:11:02,0.00,0.00,0.00,23.17,27.52,29.51,0.05,-2.13,1023.49,2025.45,3606.03,3077.99,3543.02,0.00,0.00,0.00,0000 0000 0000 A000 020008
2018-10-08 15:16:03,0.00,0.00,0.00,23.17,27.52,29.52,0.05,-2.19,1023.47,2025.48,3606.04,3077.99,3543.01,0.00,0.00,0.00,0000 0000 0000 A000 020008
2018-10-08 15:21:04,0.00,0.00,0.00,23.17,27.52,29.57,0.05,-2.17,1023.50,2025.37,3606.01,3077.98,3543.01,0.00,0.00,0.00,0000 0000 0000 A000 020008
2018-10-08 15:26:05,0.00,0.00,0.00,23.17,27.52,29.59,0.05,-2.18,1023.46,2025.25,3606.01,3077.98,3543.00,0.00,0.00,0.00,0000 0000 0000 A000 020008
2018-10-08 15:31:07,0.00,0.00,0.00,23.17,27.52,29.56,0.05,-2.19,1023.46,2025.11,3606.00,3077.96,3543.00,0.00,0.00,0.00,0000 0000 0000 A000 020008
2018-10-08 15:36:08,0.00,0.00,0.00,23.17,27.53,29.55,0.06,-2.25,1023.47,2025.07,3606.00,3077.88,3542.99,0.00,0.00,0.00,0000 0000 0000 A000 020008
2018-10-08 15:41:09,0.00,0.00,0.00,23.17,27.55,29.56,0.05,-2.25,1023.49,2025.03,3606.00,3077.88,3542.98,0.00,0.00,0.00,0000 0000 0000 A000 020008
2018-10-08 15:46:11,0.00,0.00,0.00,23.17,27.55,29.54,0.05,-2.25,1023.47,2025.02,3605.99,3077.79,3542.98,0.00,0.00,0.00,0000 0000 0000 A000 020008
2018-10-08 15:51:12,0.00,0.00,0.00,23.18,27.55,29.57,0.05,-2.25,1023.46,2025.02,3605.97,3077.64,3542.97,0.00,0.00,0.00,0000 0000 0000 A000 020008
2018-10-08 15:56:13,0.00,0.00,0.00,23.19,27.55,29.57,0.05,-2.24,1023.47,2025.02,3605.98,3077.80,3542.98,0.00,0.00,0.00,0000 0000 0000 A000 020008
2018-10-08 16:01:14,0.00,0.00,0.00,23.20,27.55,29.62,0.05,-2.25,1023.46,2025.03,3605.98,3077.77,3542.97,0.00,0.00,0.00,0000 0000 0000 A000 020008
2018-10-08 16:06:16,0.00,0.00,0.00,23.20,27.55,29.60,0.05,-2.25,1023.46,2025.01,3605.98,3077.57,3542.94,0.00,0.00,0.00,0000 0000 0000 A000 020008
2018-10-08 16:11:17,0.00,0.00,0.00,23.21,27.56,29.60,0.05,-2.25,1023.45,2025.01,3605.99,3077.46,3542.93,0.00,0.00,0.00,0000 0000 0000 A000 020008
2018-10-08 16:16:18,0.00,0.00,0.00,23.21,27.57,29.62,0.05,-2.25,1023.45,2025.00,3605.96,3077.26,3542.84,0.00,0.00,0.00,0000 0000 0000 A000 020008
2018-10-08 16:21:19,0.00,0.00,0.00,23.22,27.57,29.61,0.05,-2.25,1023.45,2025.00,3605.95,3077.24,3542.72,0.00,0.00,0.00,0000 0000 0000 A000 020008
2018-10-08 16:26:20,0.00,0.00,0.00,23.22,27.57,29.59,0.05,-2.25,1023.45,2025.00,3605.95,3077.28,3542.77,0.00,0.00,0.00,0000 0000 0000 A000 020008
2018-10-08 16:31:21,0.00,0.00,0.00,23.23,27.57,29.60,0.05,-2.25,1023.45,2025.00,3605.89,3077.13,3542.54,0.00,0.00,0.00,0000 0000 0000 A000 020008
2018-10-08 16:36:23,0.00,0.00,0.00,23.25,27.57,29.62,0.05,-2.25,1023.45,2025.00,3605.72,3077.03,3542.28,0.00,0.00,0.00,0000 0000 0000 A000 020008
2018-10-08 16:41:24,0.00,0.00,0.00,23.27,27.58,29.61,0.05,-2.25,1023.45,2025.00,3605.59,3077.03,3542.12,0.00,0.00,0.00,0000 0000 0000 A000 020008
2018-10-08 16:46:25,0.00,0.00,0.00,23.27,27.60,29.67,0.05,-2.25,1023.45,2025.00,3605.59,3077.03,3542.13,0.00,0.00,0.00,0000 0000 0000 A000 020008
2018-10-08 16:51:26,0.00,0.00,0.00,23.28,27.60,29.65,0.05,-2.24,1023.44,2025.00,3605.78,3077.05,3542.20,0.00,0.00,0.00,0000 0000 0000 A000 020008
2018-10-08 16:56:28,0.00,0.00,0.00,23.31,27.60,29.68,0.05,-2.17,1023.41,2025.00,3605.66,3077.05,3542.20,0.00,0.00,0.00,0000 0000 0000 A000 020008
2018-10-08 17:01:29,0.00,0.00,0.00,23.32,27.60,29.70,0.05,-2.20,1023.30,2025.00,3605.72,3077.06,3542.14,0.00,0.00,0.00,0000 0000 0000 A000 020008
2018-10-08 17:06:30,0.00,0.00,0.00,23.34,27.61,29.66,0.05,-2.23,1023.19,2025.00,3605.19,3077.00,3542.01,0.00,0.00,0.00,0000 0000 0000 A000 020008
2018-10-08 17:11:32,0.00,0.00,0.00,23.33,27.62,29.70,0.05,-2.25,1023.21,2025.00,3605.09,3077.00,3542.01,0.00,0.00,0.00,0000 0000 0000 A000 020008
2018-10-08 17:16:33,0.00,0.00,0.00,23.32,27.62,29.71,0.05,-2.25,1023.03,2024.99,3605.03,3077.00,3542.00,0.00,0.00,0.00,0000 0000 0000 A000 020008
2018-10-08 17:21:34,0.00,0.00,0.00,23.33,27.62,29.73,0.05,-2.25,1022.97,2024.99,3605.03,3077.00,3542.00,0.00,0.00,0.00,0000 0000 0000 A000 020008
2018-10-08 17:26:35,0.00,0.00,0.00,23.33,27.64,29.75,0.05,-2.24,1022.96,2024.99,3605.03,3077.00,3542.00,0.00,0.00,0.00,0000 0000 0000 A000 020008
2018-10-08 17:31:36,0.00,0.00,0.00,23.34,27.65,29.72,0.05,-2.23,1022.96,2024.99,3605.02,3077.00,3542.00,0.00,0.00,0.00,0000 0000 0000 A000 020008
2018-10-08 17:36:38,0.00,0.00,0.00,23.34,27.65,29.75,0.05,-2.22,1022.77,2024.99,3605.02,3077.00,3542.00,0.00,0.00,0.00,0000 0000 0000 A000 020008
2018-10-08 17:41:38,0.00,0.00,0.00,23.35,27.65,29.72,0.05,-2.20,1022.80,2024.97,3605.01,3076.99,3542.00,0.00,0.00,0.00,0000 0000 0000 A000 020008
2018-10-08 17:46:40,0.00,0.00,0.00,23.35,27.66,29.70,0.05,-2.18,1022.93,2024.97,3605.00,3076.99,3541.98,0.00,0.00,0.00,0000 0000 0000 A000 020008
2018-10-08 17:51:41,0.00,0.00,0.00,23.36,27.67,29.73,0.05,-2.18,1022.76,2024.99,3605.01,3076.99,3541.99,0.00,0.00,0.00,0000 0000 0000 A000 020008
2018-10-08 17:56:42,0.00,0.00,0.00,23.37,27.67,29.73,0.05,-2.17,1022.84,2024.97,3605.00,3076.99,3541.98,0.00,0.00,0.00,0000 0000 0000 A000 020008
2018-10-08 18:01:43,0.00,0.00,0.00,23.36,27.67,29.75,0.05,-2.23,1022.94,2024.98,3605.00,3076.99,3541.99,0.00,0.00,0.00,0000 0000 0000 A000 020008
2018-10-08 18:06:44,0.00,0.00,0.00,23.37,27.68,29.75,0.05,-2.26,1022.69,2024.98,3605.00,3076.99,3541.98,0.00,0.00,0.00,0000 0000 0000 A000 020008
2018-10-08 18:11:46,0.00,0.00,0.00,23.36,27.70,29.79,0.05,-2.25,1022.66,2024.95,3604.99,3076.98,3541.94,0.00,0.00,0.00,0000 0000 0000 A000 020008
2018-10-08 18:16:47,0.00,0.00,0.00,23.37,27.70,29.76,0.05,-2.25,1022.55,2024.96,3604.99,3076.98,3541.96,0.00,0.00,0.00,0000 0000 0000 A000 020008
2018-10-08 18:21:48,0.00,0.00,0.00,23.37,27.70,29.78,0.05,-2.25,1022.49,2024.95,3604.99,3076.98,3541.95,0.00,0.00,0.00,0000 0000 0000 A000 020008
2018-10-08 18:26:50,0.00,0.00,0.00,23.39,27.70,29.76,0.05,-2.25,1022.51,2024.95,3604.99,3076.98,3541.95,0.00,0.00,0.00,0000 0000 0000 A000 020008
2018-10-08 18:31:51,0.00,0.00,0.00,23.40,27.72,29.77,0.05,-2.27,1022.51,2024.94,3604.98,3076.96,3541.77,0.00,0.00,0.00,0000 0000 0000 A000 020008
2018-10-08 18:36:52,0.00,0.00,0.00,23.40,27.72,29.78,0.05,-2.27,1022.50,2024.80,3604.98,3076.81,3541.42,0.00,0.00,0.00,0000 0000 0000 A000 020008
2018-10-08 18:41:53,0.00,0.00,0.00,23.42,27.72,29.78,0.05,-2.26,1022.50,2024.76,3604.95,3076.70,3541.23,0.00,0.00,0.00,0000 0000 0000 A000 020008
2018-10-08 18:46:54,0.00,0.00,0.00,23.43,27.72,29.78,0.05,-2.33,1022.50,2024.53,3604.89,3076.41,3541.08,0.00,0.00,0.00,0000 0000 0000 A000 020008
2018-10-08 18:51:55,0.00,0.00,0.00,23.45,27.74,29.80,0.05,-2.30,1022.48,2024.42,3604.84,3076.31,3541.06,0.00,0.00,0.00,0000 0000 0000 A000 020008
2018-10-08 18:56:57,0.00,0.00,0.00,23.46,27.75,29.80,0.05,-2.27,1022.48,2024.36,3604.71,3076.27,3541.05,0.00,0.00,0.00,0000 0000 0000 A000 020008
2018-10-08 19:01:58,0.00,0.00,0.00,23.48,27.75,29.81,0.05,-2.27,1022.48,2024.23,3604.44,3076.10,3541.01,0.00,0.00,0.00,0000 0000 0000 A000 020008
2018-10-08 19:06:59,0.00,0.00,0.00,23.50,27.76,29.83,0.05,-2.29,1022.48,2024.11,3604.28,3076.04,3541.01,0.00,0.00,0.00,0000 0000 0000 A000 020008
2018-10-08 19:12:00,0.00,0.00,0.00,23.51,27.77,29.86,0.05,-2.33,1022.48,2024.07,3604.12,3076.02,3541.00,0.00,0.00,0.00,0000 0000 0000 A000 020008
2018-10-08 19:17:01,0.00,0.00,0.00,23.54,27.77,29.87,0.05,-2.31,1022.48,2024.05,3604.06,3076.00,3541.00,0.00,0.00,0.00,0000 0000 0000 A000 020008